{"data":{"norad_id":59263,"intl_designator":"2024-050K","name":"STARLINK-31598","alt_names":[],"object_type":"PAYLOAD","status":"ACTIVE","operator":null,"country":"US","launch_date":"2024-03-19","launch_site_code":"AFWTR","launch_vehicle":null,"mission":null,"orbit_class":"UNKNOWN","rcs_meters":null,"size_class":null,"mass_kg":null,"dimensions":null,"purposes":["comms"],"wikipedia_slug":null,"has_3d_model":false,"image_url":null,"decayed_at":null,"tle_current":{"epoch":"2026-09-21T13:07:10.722432Z","epoch_age_seconds":71774,"freshness":"FRESH","line1":"1 59263U 24050K   26264.54665188 -.00000209  00000+0  49457-5 0  9994","line2":"2 59263  53.1627 348.5106 0001016  83.8979 276.2140 15.34389179140579","mean_motion":15.34389179,"eccentricity":0.0001016,"inclination_deg":53.1627,"raan_deg":348.5106,"arg_perigee_deg":83.8979,"mean_anomaly_deg":276.214,"bstar":4.9457e-6,"rev_number":14057,"period_min":93.848419925542,"perigee_km":462.04037005243,"apogee_km":463.43043532466,"semimajor_km":6840.8724026885,"source":"CELESTRAK","updated_at":"2026-09-22T09:00:48.872226Z"}}}